Location: Bear Valley
(38.4650°N, 120.0390°W)
Time: 20:25:59
(UTC-08:00)

Envisat - Visible Passes

Search period start: 23 February 2018 00:00
Search period end: 05 March 2018 00:00
Orbit: 764 x 766 km, 98.2° (Epoch: 23 February)

Date Brightness Start Highest point End Pass type
(mag) Time Alt. Az. Time Alt. Az. Time Alt. Az.
23 Feb 3.1 19:39:20 10° S 19:44:22 75° WSW 19:49:28 10° NNW visible
24 Feb 3.2 19:02:54 10° SE 19:07:45 48° ENE 19:12:36 10° N visible
24 Feb 5.5 20:43:35 10° SW 20:46:59 18° W 20:50:25 10° NW visible
25 Feb 4.1 18:27:29 10° ESE 18:31:18 22° ENE 18:35:08 10° NNE visible
25 Feb 4.2 20:05:16 10° SSW 20:10:01 41° W 20:14:49 10° NNW visible
26 Feb 2.9 19:28:11 10° SSE 19:33:15 86° ENE 19:38:21 10° NNW visible
27 Feb 3.5 18:52:02 10° SE 18:56:40 38° ENE 19:01:19 10° N visible
27 Feb 5.2 20:31:48 10° SW 20:35:46 23° W 20:39:45 10° NW visible
28 Feb 4.4 18:17:00 10° ESE 18:20:17 18° ENE 18:23:35 10° NNE visible
28 Feb 3.7 19:53:55 10° S 19:58:51 53° W 20:03:49 10° NNW visible
01 Mar 2.9 19:17:07 10° SSE 19:22:08 68° ENE 19:27:10 10° N visible
01 Mar 5.9 20:59:29 10° WSW 21:01:36 12° W 21:03:43 10° WNW visible
02 Mar 3.8 18:41:15 10° SE 18:45:37 30° ENE 18:49:59 10° N visible
02 Mar 4.8 20:20:11 10° SSW 20:24:33 29° W 20:28:57 10° NW visible
03 Mar 3.2 19:42:40 10° S 19:47:42 68° WSW 19:52:45 10° NNW visible
04 Mar 3.1 19:06:08 10° SSE 19:11:02 53° ENE 19:15:58 10° N visible
04 Mar 5.6 20:47:13 10° SW 20:50:21 16° W 20:53:28 10° NW visible
